Theta_e
335 335 335 334 334 335 336 337 337 337 337 337 339 339 340 340 339 339 338 338 339 340 342 346 347 349 349 348 347 344 341 341 342 342 342 342 342 343 344 344 343 344 344 344 344 344 346 350 351 352 352 351 350 351 352 352 352 350 348 348 348 349 349 348 348 345 342 342 341 340 339 339 338 339 341 343 344 347 349 350 352 354 353 348 341
339 338 340 342 339 336 334 334 334 335 335 336 337 337 339 340 340 341 340 339 340 340 341 342 343 345 347 346 345 343 341 340 339 340 340 340 340 340 342 343 343 343 343 342 342 342 343 345 347 348 349 348 347 346 347 349 351 349 348 350 351 351 351 351 351 349 346 343 343 341 339 338 336 335 336 336 336 337 338 341 347 349 346 342 340
343 341 343 345 346 344 340 337 335 335 335 335 336 336 336 338 339 341 340 340 342 342 342 342 342 343 344 345 344 342 341 339 338 338 338 338 338 338 339 340 341 341 341 340 340 340 341 341 342 345 346 345 343 342 341 342 346 348 349 351 351 350 350 350 350 349 347 344 342 340 338 336 335 333 333 332 332 333 334 335 338 339 340 341 342
350 348 346 344 345 346 344 342 340 338 337 336 335 336 337 340 343 343 341 341 342 343 344 344 343 343 343 343 343 342 340 338 338 337 336 336 336 336 337 338 338 338 337 337 337 338 340 340 340 342 344 344 341 340 339 338 341 346 349 350 351 350 350 349 349 348 348 347 344 342 341 338 335 332 333 333 332 333 333 332 334 338 341 342 343
353 353 350 345 344 344 344 344 343 343 342 341 338 337 338 342 347 348 347 345 343 344 346 346 345 344 341 339 340 340 340 338 338 337 335 335 335 335 336 336 337 337 336 335 335 335 336 338 339 341 342 341 339 338 338 339 341 345 346 347 349 350 350 349 349 348 348 348 345 342 340 339 335 330 331 334 333 330 329 330 335 341 343 343 343
355 354 349 343 343 346 348 347 347 347 347 346 343 339 338 340 343 347 349 349 347 346 347 348 348 346 343 340 339 339 339 338 338 337 336 336 336 335 335 335 335 335 334 334 334 333 333 335 336 338 338 338 337 336 337 339 341 343 343 342 343 345 346 345 345 346 347 348 347 343 338 337 335 329 328 332 332 328 327 329 334 339 340 340 341
358 357 354 349 347 349 350 350 351 352 351 351 349 345 342 340 340 343 347 349 349 348 347 347 348 348 346 344 342 340 339 338 337 336 335 336 336 335 334 333 333 333 333 333 333 333 333 333 333 334 334 335 334 334 335 336 338 338 338 337 337 338 338 337 339 341 343 343 343 339 334 332 331 328 325 327 327 326 327 330 333 333 333 336 339
357 357 356 355 353 352 352 353 354 355 353 353 354 353 349 345 344 345 347 348 349 348 348 347 347 347 347 346 345 344 342 341 339 336 335 334 334 333 332 331 331 330 331 331 332 332 332 332 332 331 332 332 332 332 331 331 332 333 333 335 337 338 338 338 338 338 339 338 337 336 334 334 333 330 326 325 325 325 326 330 332 330 331 337 340
355 355 355 356 356 355 354 354 355 355 355 355 355 356 354 351 349 349 349 349 349 348 348 348 347 346 345 345 346 345 345 344 342 340 338 336 334 333 331 330 329 329 329 329 329 329 329 330 330 330 330 331 331 332 330 330 332 335 337 340 341 342 342 342 342 341 341 340 339 337 337 337 337 334 331 328 327 327 327 328 330 329 332 337 337
354 354 354 354 354 354 353 353 354 355 355 355 355 354 354 354 353 352 351 349 348 347 348 349 349 348 346 344 344 345 345 345 344 342 341 340 339 338 335 333 330 329 328 329 329 328 328 328 329 329 329 330 330 330 330 331 334 337 340 342 343 343 343 343 343 343 342 341 339 338 338 338 338 338 336 332 330 331 331 331 331 330 331 334 334
352 352 352 352 352 351 351 352 352 353 353 353 354 354 353 353 353 353 352 350 347 346 347 348 349 349 349 347 345 345 345 345 344 343 343 342 342 342 342 340 337 335 332 329 328 328 328 328 328 328 328 327 327 327 328 330 332 334 338 341 342 342 342 342 342 341 341 340 339 339 339 339 338 339 339 335 333 335 336 337 337 335 334 335 334
352 351 351 351 351 350 350 350 351 352 352 352 353 353 353 353 353 352 352 351 349 346 346 346 347 349 349 349 347 346 345 344 343 343 343 343 343 343 344 344 344 343 341 337 333 330 329 328 328 327 327 325 325 325 326 328 330 335 339 342 343 342 341 340 339 339 339 339 339 339 339 339 340 340 339 337 337 338 340 341 341 340 339 338 336
352 352 352 352 352 351 351 351 351 352 352 353 353 354 354 354 353 352 352 352 350 348 345 345 346 347 349 350 349 347 346 345 344 343 343 344 345 345 345 345 346 347 347 346 344 341 339 337 336 335 333 331 330 329 328 328 329 333 338 340 340 339 338 337 339 340 340 341 341 341 340 340 341 340 337 338 340 342 342 342 342 344 344 342 339
348 349 351 352 353 353 352 352 352 352 352 352 353 353 353 353 353 353 353 352 350 348 346 345 345 347 348 349 349 348 347 346 345 344 345 345 346 346 347 347 348 348 349 349 348 348 347 345 344 344 343 342 341 338 335 333 333 333 336 337 337 336 335 336 337 338 338 339 340 339 338 338 338 336 335 338 342 344 344 344 344 346 345 343 339
343 343 345 347 349 351 353 353 353 352 353 353 352 352 352 352 352 352 352 352 350 349 346 346 345 346 348 349 350 350 349 347 346 345 346 346 347 347 348 348 349 349 350 350 350 350 349 348 347 346 346 346 346 345 344 342 340 339 339 339 339 339 339 338 338 337 337 337 337 337 337 337 337 337 337 340 343 345 345 346 347 347 345 343 340
335 338 340 342 344 346 349 351 352 351 351 351 351 351 352 351 352 352 352 352 352 351 349 348 347 346 346 348 350 352 352 350 348 347 347 347 348 348 349 350 350 351 351 351 351 350 350 349 348 348 347 347 347 347 347 346 346 345 344 344 343 342 342 341 340 340 340 339 338 339 339 339 340 341 341 342 344 345 347 348 348 347 347 346 343
326 332 336 338 340 341 343 346 348 349 347 347 348 349 350 350 350 351 352 352 353 353 352 350 350 349 348 348 349 352 353 353 352 352 351 351 351 351 351 352 352 352 352 351 351 351 351 350 349 349 348 348 347 347 347 347 347 347 347 347 347 347 347 346 345 344 343 343 342 342 342 343 343 344 344 345 346 346 348 349 348 348 349 349 344
317 321 327 331 333 334 335 338 341 343 342 341 341 343 345 347 347 348 349 350 351 352 352 352 352 352 351 350 350 351 353 354 353 353 352 352 351 351 351 351 351 352 352 352 352 352 352 352 351 351 350 349 349 348 347 347 346 346 347 348 348 349 349 349 349 349 349 349 348 348 348 348 348 348 348 348 348 349 350 350 349 350 351 349 344
315 315 317 320 322 325 329 332 333 334 334 332 332 334 337 339 342 344 346 348 349 349 350 351 351 352 352 352 352 352 353 353 354 353 352 351 351 351 351 351 352 352 353 353 353 353 353 352 353 352 351 351 351 350 349 347 347 347 348 348 349 349 349 349 349 350 351 351 351 351 351 351 351 351 351 351 351 351 351 351 350 350 351 349 346
316 315 315 316 317 320 325 327 325 323 324 324 325 327 328 331 334 337 340 343 346 348 349 349 350 351 352 352 352 352 352 352 352 352 352 352 353 353 353 353 353 353 353 353 353 352 351 352 352 351 350 350 351 351 351 350 349 348 347 348 349 349 349 350 350 350 351 351 352 352 352 352 352 353 353 353 352 352 352 351 351 350 350 349 346
315 314 315 316 317 318 320 322 319 316 317 318 319 320 322 326 330 334 336 338 340 343 346 347 348 350 351 352 353 352 352 351 350 350 350 350 351 351 352 352 352 352 352 352 352 351 351 351 350 349 349 351 351 351 352 351 350 350 349 349 350 350 351 351 351 351 352 352 353 353 353 353 354 354 354 354 353 352 351 351 350 349 350 350 348
315 314 314 315 317 318 319 319 316 314 315 314 314 317 324 329 333 336 339 339 339 341 343 344 345 346 347 349 351 352 352 352 351 351 351 351 350 350 350 350 350 351 351 351 351 352 352 351 351 351 352 353 353 352 352 352 351 351 350 350 351 351 352 353 353 354 354 354 354 354 354 354 354 354 355 354 353 351 350 350 349 349 350 351 351
315 315 315 314 314 315 316 315 313 312 313 312 313 319 328 332 334 337 341 342 342 343 345 346 347 346 346 346 347 349 350 351 350 350 350 351 351 352 351 351 351 352 352 352 352 352 352 351 352 353 354 355 354 353 353 352 352 352 352 351 350 351 354 355 355 355 356 356 357 356 355 354 354 354 354 354 354 354 353 353 352 352 352 352 351
315 313 313 313 312 311 311 312 310 310 311 311 314 321 329 332 334 337 341 343 343 344 345 346 347 347 345 342 340 338 339 343 346 348 349 351 351 353 352 352 353 354 354 354 353 353 352 351 351 352 354 355 355 355 354 354 353 353 352 351 351 353 355 356 356 356 357 358 358 358 357 356 355 355 355 355 355 355 356 355 355 355 355 354 354
310 309 309 309 309 309 309 309 309 311 313 313 317 323 326 328 332 335 338 340 342 343 344 345 345 345 343 338 332 325 322 324 330 336 342 347 349 352 353 353 354 354 354 354 354 353 353 352 352 353 353 354 354 354 353 353 353 353 353 352 353 354 355 355 356 356 356 357 357 357 357 356 356 356 356 356 356 355 355 355 355 355 355 356 356
307 307 306 307 307 307 308 308 308 311 314 315 320 323 324 325 329 332 334 337 339 341 343 343 342 342 341 338 333 323 316 314 315 319 325 331 336 341 345 349 351 352 353 354 354 354 353 353 353 353 353 353 354 353 353 352 351 352 353 353 354 355 356 356 357 357 356 355 355 355 355 355 356 357 356 357 356 355 354 354 354 355 355 356 356
308 307 307 307 307 307 308 308 308 309 312 315 320 323 323 324 326 328 331 333 336 338 339 339 339 338 338 336 330 321 314 313 314 314 316 319 322 326 330 333 337 340 342 344 347 349 351 352 353 353 354 354 354 354 353 353 352 352 353 353 353 355 356 356 357 357 356 355 353 353 354 354 355 356 356 356 356 354 354 355 355 354 355 355 356
311 310 309 309 308 308 308 309 308 308 310 314 319 322 323 323 323 324 326 328 329 330 331 331 331 331 329 326 320 315 312 313 313 313 314 315 317 319 321 323 325 327 328 330 332 334 338 342 345 348 351 353 353 353 354 355 354 354 354 354 354 354 355 356 356 356 356 355 355 354 354 355 355 355 355 356 355 354 353 354 354 354 355 356 356
311 311 310 310 309 309 309 310 310 309 308 310 313 317 321 322 321 321 322 323 325 325 326 326 326 325 323 320 317 315 313 312 312 313 314 314 314 316 317 320 322 323 324 325 326 326 327 330 333 336 340 343 345 346 348 352 355 356 356 356 356 356 356 356 356 356 356 356 356 356 355 355 354 354 354 355 354 352 353 354 354 355 355 356 356
310 310 309 309 309 309 310 310 310 310 309 309 309 310 312 315 317 317 317 318 319 320 321 322 322 321 319 318 317 317 315 314 315 315 315 314 315 316 316 317 318 320 321 323 324 325 326 326 327 328 330 331 332 334 336 341 347 351 353 355 356 357 357 356 355 354 353 352 353 354 354 354 353 352 353 355 354 354 355 356 356 356 356 356 356
310 309 309 309 309 309 310 310 310 310 310 310 309 309 308 308 310 313 315 315 315 315 315 315 315 316 317 318 319 320 320 321 320 318 316 315 315 315 315 315 315 316 319 321 324 326 328 329 328 328 329 329 329 329 331 332 335 339 342 344 348 352 354 355 353 350 349 349 350 351 352 352 352 352 354 355 355 355 356 356 357 358 358 358 358
311 311 311 311 311 311 311 311 311 311 311 311 312 312 311 310 310 311 313 315 316 316 317 317 316 315 318 322 325 326 326 325 322 318 316 315 314 314 314 314 315 317 320 324 328 332 335 337 336 335 335 335 335 336 338 339 340 340 340 340 342 345 347 349 350 351 350 350 349 348 350 351 352 352 354 355 355 354 355 356 357 357 357 357 358
311 311 311 312 313 313 313 313 313 313 313 313 314 314 315 315 314 313 313 313 314 315 317 321 321 320 319 320 321 322 322 321 318 316 315 313 313 315 316 318 322 326 330 334 338 341 343 344 344 344 343 342 341 343 345 347 347 348 347 347 347 347 343 340 343 347 347 347 347 348 351 353 352 352 353 353 354 354 354 355 356 357 357 357 357
312 312 313 314 314 314 314 314 314 314 314 314 314 315 317 317 317 317 316 315 314 313 315 319 321 320 319 319 318 318 320 320 318 317 317 317 318 320 321 324 331 336 338 339 339 339 340 341 342 343 344 345 344 345 347 348 349 350 351 352 353 352 347 342 342 344 345 348 350 351 353 355 355 354 354 353 353 353 354 354 355 356 357 356 356
313 313 314 315 315 315 315 314 314 314 314 314 314 315 315 317 317 317 317 317 317 317 317 317 318 319 321 321 322 321 323 324 323 323 323 324 325 327 329 332 336 338 334 329 324 323 327 332 336 339 341 345 346 346 347 348 349 350 351 352 353 354 351 348 347 347 349 350 351 352 354 355 356 356 355 355 354 354 354 355 356 356 356 356 356
314 314 314 315 315 315 315 315 314 314 314 314 314 314 314 314 315 316 316 317 317 317 317 318 319 320 322 323 323 323 322 322 322 324 327 329 329 330 333 335 336 335 329 322 317 316 319 327 333 336 337 339 343 345 347 348 348 348 349 350 352 352 351 350 349 349 350 350 349 351 354 355 355 356 356 355 355 355 355 355 356 356 356 356 356
311 313 314 314 315 315 316 315 315 314 314 313 314 314 314 315 315 315 316 316 316 317 317 317 318 319 321 322 323 322 321 320 318 319 324 330 332 333 334 335 334 333 331 327 322 317 316 320 325 328 330 332 334 338 343 346 347 348 348 348 349 350 350 350 349 349 351 351 349 350 354 355 355 356 356 356 356 356 356 357 357 357 357 357 357
309 311 312 313 313 314 315 315 315 314 314 314 314 315 315 315 316 316 316 317 317 318 318 318 318 318 319 320 320 320 320 319 317 316 319 324 327 328 329 329 329 329 329 328 324 320 317 316 317 320 323 324 325 328 333 339 343 346 347 347 348 349 350 351 350 350 352 353 352 352 354 355 356 356 357 357 357 357 357 358 358 358 358 358 358
308 309 310 311 312 313 313 314 314 314 314 314 314 315 315 315 315 315 315 316 317 318 319 319 319 320 320 319 319 319 319 319 320 320 321 322 323 324 325 325 325 325 325 325 323 320 317 315 315 317 319 321 322 323 326 329 334 338 341 344 346 347 348 349 349 348 349 351 352 352 352 352 353 354 355 355 356 356 357 357 357 357 358 358 358
306 307 308 309 310 311 311 312 313 313 313 313 314 314 315 315 315 315 315 316 316 317 317 318 319 320 320 320 320 320 320 320 321 322 322 322 323 323 323 323 323 323 322 321 320 318 316 316 316 317 319 320 321 322 324 325 327 329 332 335 338 340 342 345 347 346 346 347 347 348 349 349 349 349 350 352 353 354 355 356 355 355 356 357 357
304 305 306 307 307 308 309 310 310 311 311 312 313 313 314 314 314 314 315 315 316 316 316 316 317 318 319 320 320 320 321 321 321 321 321 321 321 321 321 320 320 320 320 320 319 319 319 318 316 317 319 321 321 323 325 326 326 327 328 329 331 332 334 338 341 343 342 342 343 344 345 346 346 346 346 348 349 350 352 353 354 354 354 355 355
304 304 304 305 306 307 307 308 309 309 310 311 311 312 313 313 313 313 314 314 314 314 314 314 315 316 317 318 318 319 319 320 320 320 320 320 320 319 319 319 320 320 319 319 318 318 318 317 316 316 318 320 321 323 325 326 326 326 327 327 328 329 330 332 334 336 337 336 336 338 340 342 343 343 343 343 344 345 346 348 351 352 352 352 352
303 302 303 303 304 305 306 306 306 307 307 308 309 310 311 311 312 312 312 313 313 313 313 314 315 316 316 317 317 318 318 318 319 319 319 319 319 319 318 319 319 318 317 317 317 317 317 316 316 316 317 319 320 323 325 326 326 326 326 326 327 328 329 330 331 333 334 334 333 334 336 338 340 340 340 340 341 341 341 342 345 347 348 349 350
301 301 301 301 302 303 303 303 304 304 305 306 306 307 308 308 309 310 310 311 312 313 313 313 314 315 315 316 317 318 318 318 318 319 319 319 319 318 318 318 317 317 316 316 316 317 317 316 316 316 317 318 320 322 324 325 325 325 325 325 326 327 328 330 331 333 334 335 335 335 336 336 338 338 338 338 339 340 340 340 342 343 344 346 346
300 300 300 300 301 301 301 301 302 302 303 304 304 305 305 306 307 307 308 309 309 310 311 312 313 313 314 315 316 317 317 317 317 317 317 317 318 318 317 317 317 317 316 316 316 316 315 315 315 315 316 317 318 319 321 322 322 322 323 324 326 327 328 329 331 332 333 334 335 336 337 337 337 337 338 339 340 341 341 341 342 343 344 345 345
299 299 300 300 300 300 301 301 301 302 303 303 304 304 305 305 306 306 306 307 308 309 310 311 312 313 314 315 315 316 316 316 316 316 316 316 317 317 316 316 316 316 315 315 315 315 314 314 314 315 316 317 317 318 318 319 319 320 321 323 325 327 327 328 330 331 331 332 333 335 335 337 337 338 339 340 342 342 342 342 343 343 343 344 344
299 299 299 300 300 300 301 302 302 303 303 303 304 304 305 305 305 305 306 306 307 308 309 309 310 311 312 313 314 315 315 315 315 316 316 316 316 315 315 315 315 314 314 314 314 314 313 314 314 315 316 317 317 317 317 318 318 319 321 323 325 327 327 328 329 330 330 331 333 334 335 336 337 339 340 341 341 341 341 340 340 340 340 340 340
299 298 298 299 299 300 301 301 302 302 302 302 302 303 303 303 304 304 304 305 306 306 307 307 308 308 309 311 312 313 314 315 315 315 315 315 314 314 314 314 314 314 313 313 313 313 313 313 314 315 316 317 318 318 317 318 318 319 321 324 326 327 328 329 329 330 330 331 333 334 336 337 338 339 340 339 338 337 337 336 336 336 336 336 336
298 297 297 298 298 299 299 300 300 300 300 300 300 301 301 301 302 302 303 303 304 305 306 307 308 309 309 310 311 312 313 314 314 314 314 314 313 313 313 313 313 313 313 313 313 313 313 313 314 315 316 317 318 318 318 319 319 321 322 324 326 327 328 329 330 331 331 332 333 335 336 337 337 337 337 336 335 333 333 332 333 333 334 334 334
297 296 296 296 296 297 297 298 298 298 298 299 299 299 299 300 300 301 302 302 303 304 305 306 307 308 309 310 310 311 312 312 312 312 312 312 312 312 312 312 312 312 312 312 312 313 313 314 314 315 316 318 318 319 319 319 320 321 322 324 325 326 327 328 329 330 331 331 332 333 334 334 334 334 333 332 332 331 331 331 332 332 333 333 333
295 295 295 295 295 295 295 296 296 296 297 297 297 297 298 298 299 299 300 301 302 303 304 305 305 306 307 307 308 309 309 309 309 310 310 310 310 311 311 310 310 310 311 311 312 313 313 314 315 315 316 317 318 319 318 318 318 319 321 322 323 325 325 325 325 326 328 329 330 331 331 331 331 331 331 330 330 330 330 331 331 332 333 333 333
Wind_Speed
25 25 24 25 25 25 25 25 24 23 22 22 21 19 19 19 18 18 17 18 17 17 16 16 17 16 15 15 15 15 15 15 15 14 14 14 13 13 13 14 13 12 11 10 10 10 11 12 12 11 11 12 11 11 12 12 11 9 6 5 5 7 9 10 12 13 10 9 11 12 12 12 13 14 15 16 16 15 16 17 17 19 21 21 19
26 26 25 24 23 24 24 24 24 24 23 23 22 21 20 19 19 18 18 18 18 18 17 16 16 17 16 16 16 16 15 15 14 15 15 14 14 14 14 15 15 14 13 13 12 11 12 13 13 12 12 13 13 13 13 13 13 11 7 7 8 9 11 12 13 15 14 10 10 11 11 12 13 13 14 16 17 17 17 18 18 19 19 17 14
25 26 25 24 24 23 23 23 24 24 24 24 23 22 21 20 19 20 20 19 19 20 19 17 17 17 17 17 17 17 16 15 14 15 15 15 15 15 15 15 15 16 16 15 13 12 13 14 14 13 12 13 13 13 13 13 13 12 11 10 11 10 11 11 12 15 17 15 14 13 13 13 14 14 14 15 16 16 16 15 15 14 12 10 11
26 27 25 23 24 24 23 23 23 24 24 24 23 22 21 20 19 19 20 20 20 21 21 19 19 19 18 18 17 17 18 18 17 16 16 16 16 15 16 16 16 16 16 15 13 12 13 13 13 13 13 14 14 13 13 13 12 13 13 13 13 13 12 13 14 15 18 19 20 18 17 16 16 15 14 14 13 13 14 15 14 12 9 8 10
28 27 24 22 23 24 23 23 23 23 23 23 23 22 21 20 19 19 20 20 20 21 21 21 20 21 21 20 18 18 18 19 19 18 17 17 16 16 16 16 17 18 17 15 14 14 14 14 14 13 14 15 15 14 13 14 14 13 14 14 14 15 15 16 16 17 18 20 22 21 19 19 19 17 15 15 15 15 15 15 13 12 10 9 11
29 27 24 22 23 23 23 22 22 22 22 22 22 23 23 22 21 21 21 21 21 21 21 22 22 22 21 20 20 19 18 19 20 20 19 18 17 16 16 16 16 18 18 17 16 16 15 15 14 14 15 16 16 15 15 15 14 14 14 14 14 14 16 16 17 18 19 20 22 22 22 22 21 19 17 17 19 19 19 17 14 12 13 13 13
30 29 26 23 23 23 24 23 22 22 22 21 21 22 23 24 23 23 23 23 23 23 23 23 23 24 23 21 20 19 18 18 19 20 20 19 19 18 17 17 16 17 17 17 17 17 17 16 15 15 15 16 16 15 15 15 15 15 15 14 14 15 15 16 16 18 20 21 22 23 23 23 23 22 20 20 21 22 22 21 18 16 15 15 15
26 26 25 24 24 24 25 24 24 24 23 22 22 22 23 25 25 25 25 25 25 24 23 24 24 25 25 24 21 19 19 18 18 19 20 20 21 20 20 19 18 18 18 18 18 18 18 18 17 17 16 16 16 16 16 16 16 16 15 14 14 15 16 17 18 19 20 22 23 24 25 25 25 24 23 23 24 23 23 23 23 21 18 16 17
23 22 23 24 24 24 24 24 24 25 25 25 24 23 23 24 26 27 26 27 27 26 25 25 25 26 26 25 23 21 21 20 19 18 18 18 20 21 21 22 22 21 20 19 19 19 19 18 18 18 18 17 17 17 18 17 17 16 14 13 15 17 19 20 21 21 22 24 25 26 27 27 26 25 25 25 25 25 25 24 25 24 22 21 21
21 22 22 23 23 23 23 23 23 25 25 25 25 25 24 24 26 27 27 27 28 27 26 26 28 29 28 27 26 25 23 22 20 19 18 17 17 18 20 21 22 23 23 22 21 21 20 20 19 18 18 18 18 18 18 17 17 16 15 15 17 19 21 22 23 24 25 27 27 28 28 28 27 27 28 27 27 27 28 27 28 27 25 26 26
16 17 18 19 20 20 20 21 22 23 24 24 24 25 26 26 27 28 28 28 28 27 26 27 28 30 31 30 29 29 27 25 22 21 20 19 18 18 18 19 20 22 23 24 24 23 23 22 22 21 21 20 20 19 19 19 18 17 17 18 19 21 22 23 25 25 27 29 29 29 30 31 30 29 30 30 30 30 30 30 30 30 29 30 30
12 13 14 15 16 17 17 18 19 20 21 22 22 24 25 25 26 27 28 29 29 28 27 27 27 29 31 31 31 31 30 28 25 23 22 21 21 21 21 20 20 20 21 22 23 23 23 23 23 23 23 22 22 22 21 21 21 20 21 21 22 23 24 25 27 28 29 31 32 32 32 33 32 32 32 32 32 32 32 32 31 31 32 32 33
10 11 12 12 12 13 14 15 15 16 17 18 21 22 23 24 25 26 26 28 29 29 28 27 26 28 30 32 32 32 32 30 28 26 23 21 21 22 23 23 23 22 21 20 20 20 21 21 22 22 22 22 22 22 23 23 23 23 24 25 26 26 27 27 28 28 28 29 31 32 31 32 33 33 32 32 34 34 33 32 30 30 32 32 32
8 9 10 11 11 12 12 13 13 13 14 16 18 19 21 22 22 24 25 27 28 29 29 28 27 27 28 30 32 32 32 31 30 28 27 25 23 23 24 24 25 25 24 23 22 22 21 21 22 22 21 21 21 21 22 23 24 24 25 26 27 27 27 28 28 28 28 29 31 32 32 32 34 34 33 32 33 33 33 32 29 28 29 29 30
6 6 6 8 8 10 10 11 12 12 13 14 16 17 17 18 19 20 21 23 26 28 29 29 29 28 28 28 27 27 28 29 29 28 28 28 27 26 26 26 27 28 28 28 28 27 26 26 26 26 25 24 22 22 22 23 23 24 25 26 26 27 27 27 27 28 29 30 32 33 33 33 33 34 33 33 33 33 33 31 28 27 27 28 29
8 7 6 6 6 6 8 9 10 9 10 11 13 15 16 16 16 17 17 18 20 24 27 29 30 30 30 29 26 24 23 23 25 25 26 27 26 26 26 26 27 28 29 30 31 31 31 31 31 31 31 29 27 25 24 24 24 25 26 28 29 30 30 30 30 30 31 32 33 34 35 34 34 34 34 33 33 32 32 32 29 27 28 29 30
11 10 8 6 5 5 5 7 9 9 8 8 10 12 14 15 16 16 16 16 16 19 22 25 27 29 30 30 29 26 23 22 22 23 23 24 24 25 26 26 27 28 29 30 31 32 32 32 33 34 34 33 32 30 28 28 28 28 29 30 30 32 33 32 32 33 34 34 35 36 36 36 35 35 33 32 32 31 32 32 30 28 29 31 31
12 11 9 7 6 5 4 3 5 7 6 4 5 7 9 11 13 14 15 16 16 17 18 19 22 25 27 28 29 28 26 24 24 25 25 26 28 29 31 32 33 34 35 35 35 34 34 34 34 35 36 36 34 33 32 33 33 33 32 32 33 34 34 32 32 32 32 32 33 33 34 33 33 32 32 31 30 29 31 32 30 28 30 31 31
10 9 8 7 6 6 6 5 4 3 2 1 1 2 3 5 7 9 12 14 16 17 17 18 19 20 22 25 26 27 27 26 27 28 30 32 33 34 36 38 39 40 39 39 37 37 37 37 36 36 38 38 37 35 34 35 36 37 35 35 36 35 33 31 31 31 30 30 31 31 31 30 30 30 30 29 29 29 30 31 30 29 31 32 32
7 6 5 5 5 6 6 5 5 5 4 2 2 2 2 2 3 4 6 9 12 14 16 17 17 17 19 22 24 27 29 30 30 30 31 33 35 36 37 39 40 40 40 39 39 38 37 37 36 35 35 37 37 37 36 35 36 38 38 38 39 37 32 30 31 30 29 29 29 29 29 28 28 29 29 29 30 30 30 31 29 29 30 32 31
7 6 4 1 2 3 4 3 2 3 4 5 5 5 5 4 3 3 3 4 6 9 11 13 15 15 16 18 21 24 27 29 31 32 32 33 34 36 37 38 38 37 37 37 37 37 35 34 33 32 31 32 34 36 36 36 36 37 38 39 39 37 34 33 31 30 29 29 28 28 28 28 28 29 29 29 29 29 30 30 30 29 29 30 30
7 7 6 6 4 2 0 1 3 3 4 5 7 7 6 6 5 4 3 2 2 2 3 5 8 11 14 16 18 20 22 23 25 26 27 29 31 32 34 34 34 35 35 36 36 35 33 32 30 29 28 27 29 32 34 35 36 37 38 37 37 36 34 31 29 28 28 28 28 29 29 28 28 28 29 29 28 27 27 28 29 30 31 31 31
6 6 7 8 9 9 7 7 8 8 7 6 6 6 5 5 5 4 2 3 4 4 3 1 1 3 6 9 11 14 16 18 20 21 21 22 24 25 28 29 30 31 33 34 33 32 31 30 29 29 29 27 26 28 31 34 35 36 36 35 35 33 31 28 26 26 26 26 27 29 29 29 29 29 29 29 27 26 26 26 27 29 31 32 33
8 8 8 10 11 12 12 12 11 9 7 5 3 2 3 4 4 3 1 1 1 2 3 2 1 1 2 4 5 6 9 11 14 16 17 17 18 18 20 23 25 26 28 29 30 30 29 29 29 30 31 30 28 28 30 32 33 34 33 32 32 30 28 26 25 25 26 27 28 30 31 30 30 31 31 31 30 29 29 29 29 30 30 31 32
9 9 9 9 10 11 12 11 10 7 5 3 1 1 0 2 2 2 2 3 4 3 2 3 2 3 5 6 7 8 10 11 11 11 12 14 14 15 16 19 20 22 24 25 26 27 27 28 29 30 30 30 29 29 29 29 30 31 31 29 29 28 27 26 25 25 27 28 29 32 33 33 33 34 34 34 34 34 32 32 32 32 33 33 33
9 8 8 8 8 9 10 9 7 7 6 4 3 4 4 3 3 3 4 5 6 5 6 7 7 8 10 11 13 15 16 14 12 11 11 12 13 14 16 17 19 21 23 25 25 26 26 27 28 29 29 28 28 29 28 27 28 29 30 30 29 28 28 28 28 28 29 31 32 34 35 36 36 37 37 37 37 36 34 34 34 35 35 36 36
9 9 8 8 7 7 8 9 8 8 8 8 8 8 8 7 7 8 8 9 9 10 11 12 12 13 14 16 18 20 20 16 13 12 12 12 13 14 15 17 19 21 24 25 26 27 28 29 29 29 29 28 27 27 28 28 27 28 29 30 31 31 30 30 30 31 32 34 36 38 38 38 39 39 39 38 38 36 35 37 38 37 36 37 37
10 10 10 10 9 8 8 9 9 9 9 10 11 12 11 12 12 12 11 12 12 14 16 17 17 18 19 21 23 23 22 18 15 14 13 13 13 14 15 17 19 21 24 25 26 27 28 29 30 30 30 30 29 28 28 27 27 26 26 28 30 31 32 32 33 34 34 36 37 37 36 36 36 36 36 37 36 34 34 35 36 34 34 35 35
13 13 13 13 12 11 10 10 11 11 11 11 12 13 14 15 16 16 15 14 14 16 18 19 20 20 20 21 21 22 22 20 16 14 14 13 14 15 16 17 19 21 24 26 26 26 27 28 28 28 28 29 30 31 30 28 27 26 26 25 26 28 29 29 29 28 28 29 31 31 30 31 31 31 32 33 32 29 29 31 31 30 30 31 33
15 15 15 14 14 13 13 13 13 14 14 14 13 14 14 15 16 16 17 17 18 18 19 19 20 20 20 19 18 19 21 21 17 15 14 14 13 14 16 18 20 22 24 26 27 28 28 28 28 27 26 27 28 29 30 30 30 29 28 27 27 27 26 24 24 24 24 25 26 26 26 27 28 28 30 31 28 25 26 28 29 29 30 31 32
15 15 15 15 15 15 16 16 17 17 17 16 16 16 16 15 15 14 14 15 15 16 17 18 18 17 17 18 17 17 18 18 17 16 16 14 13 14 17 18 20 22 24 26 27 28 28 29 29 28 27 26 26 27 27 28 29 30 30 30 29 28 26 24 22 23 24 25 26 26 27 28 29 29 30 30 29 27 28 28 29 30 31 32 33
14 14 15 15 15 15 16 17 18 18 17 16 15 15 16 17 16 15 14 13 12 12 13 14 14 13 13 15 16 17 17 17 18 18 18 16 14 14 17 18 19 20 22 24 25 26 26 27 28 28 27 26 26 26 25 24 24 25 26 27 27 26 27 27 25 25 27 28 29 30 31 31 32 32 32 33 33 32 31 30 30 31 32 33 35
13 13 13 13 14 14 15 15 16 16 17 16 15 14 14 15 17 19 19 17 15 13 12 12 13 14 14 15 17 18 18 19 19 19 19 18 16 15 16 17 17 18 19 20 22 22 22 23 25 26 26 27 26 24 22 21 20 19 20 21 21 23 27 29 28 28 31 32 32 33 33 33 34 35 36 35 35 35 34 33 32 32 33 35 35
11 11 10 10 12 13 13 14 15 16 17 17 17 17 16 16 17 19 21 21 20 18 15 13 14 16 16 16 16 15 15 15 16 17 17 16 15 16 17 17 16 16 17 18 20 21 22 23 24 24 24 25 24 23 22 21 20 18 18 18 17 19 24 26 26 28 30 30 30 31 31 31 32 34 35 36 36 37 38 37 35 35 36 35 35
11 11 9 9 10 12 12 13 13 14 16 17 18 19 20 20 20 21 21 22 22 21 19 17 15 15 15 15 13 12 11 13 14 15 15 15 15 16 17 17 17 16 17 18 20 22 22 22 22 23 22 21 19 19 18 18 17 16 17 18 18 19 22 24 24 25 26 27 28 28 28 28 29 30 31 33 34 35 36 36 35 35 35 35 34
12 11 10 9 10 12 14 14 14 14 15 16 17 18 19 20 21 22 23 23 24 24 23 21 17 14 13 12 11 11 12 13 14 13 13 15 16 18 19 19 19 19 19 20 22 24 23 20 19 21 22 22 21 20 19 17 15 14 14 16 18 19 22 25 25 25 26 27 27 26 26 25 25 24 25 27 28 29 30 31 32 33 33 33 33
13 12 10 10 12 14 15 15 16 16 16 16 16 16 16 16 17 17 18 19 20 21 22 22 20 18 16 15 15 15 16 17 18 18 16 17 18 18 20 21 22 23 24 25 26 28 28 27 26 25 25 24 24 25 25 24 23 21 20 20 19 19 21 23 24 26 28 28 26 26 25 24 21 20 21 23 24 25 26 27 28 30 30 31 31
13 13 12 12 13 16 17 18 18 17 17 17 17 17 16 16 16 16 16 17 17 18 18 19 19 20 21 21 22 22 22 23 22 20 20 21 22 23 23 25 26 27 28 29 30 32 33 33 33 33 31 29 27 26 26 28 28 28 28 28 27 25 23 24 25 27 27 27 27 26 24 22 20 20 21 23 25 27 28 28 29 30 30 31 31
15 15 16 16 17 18 19 19 19 19 20 20 19 19 19 19 19 19 19 19 20 19 19 18 18 18 20 23 23 22 21 21 20 20 21 22 24 25 26 27 28 28 29 30 32 34 35 37 37 36 36 34 31 29 28 29 30 31 31 31 32 31 28 28 28 26 24 23 23 22 21 22 23 24 25 27 29 30 30 30 31 31 32 32 33
17 16 17 18 19 20 21 21 22 22 21 21 20 21 21 21 21 21 21 21 22 22 22 21 21 20 20 20 19 19 19 21 22 22 22 23 24 26 27 28 30 31 31 32 32 34 36 37 38 38 37 35 33 31 30 29 30 31 32 33 34 34 32 31 31 29 26 25 25 26 27 29 30 30 30 31 32 32 32 33 33 33 33 34 34
15 16 16 16 16 18 19 20 20 20 20 20 20 21 22 22 22 22 22 23 23 23 24 24 25 24 22 21 21 21 23 24 25 26 26 27 27 28 29 30 31 32 32 32 33 34 36 37 38 39 38 36 34 32 31 30 30 31 32 32 34 34 34 34 35 35 34 33 34 34 36 36 36 35 34 35 35 35 36 36 36 35 35 36 35
14 15 15 15 15 15 15 16 16 17 19 20 21 22 22 23 23 23 24 24 25 25 26 26 26 25 25 25 26 26 27 28 29 30 30 30 31 30 30 30 30 31 32 32 34 36 39 39 39 38 38 38 36 33 32 31 30 30 31 32 32 33 34 34 35 37 38 39 40 40 40 40 39 39 38 38 38 38 39 40 40 39 39 39 38
15 15 15 14 14 14 15 15 17 18 20 21 21 21 21 22 23 24 24 25 26 26 27 27 26 25 24 24 26 28 29 30 31 31 31 31 31 31 31 30 30 30 31 33 36 38 40 40 40 39 39 39 37 34 32 31 31 30 30 31 31 32 33 33 34 35 37 39 41 42 43 43 43 43 43 43 42 41 41 42 42 42 43 43 42
17 18 17 16 15 15 16 17 17 18 18 18 18 19 20 21 23 24 24 25 26 26 26 27 26 26 25 25 25 26 28 29 30 30 30 30 31 31 31 31 30 31 32 34 36 39 40 40 41 41 40 39 37 35 33 32 31 31 30 30 30 31 31 32 33 34 35 36 38 40 43 44 45 45 45 44 42 41 40 40 41 41 43 44 44
18 18 18 17 16 16 16 16 16 16 17 17 18 19 19 20 22 23 23 24 26 26 27 27 27 26 27 26 26 27 29 30 31 31 31 31 32 31 31 31 32 32 33 34 35 37 39 40 41 42 41 40 38 36 35 33 32 31 31 30 30 30 30 30 31 32 33 35 37 38 40 41 42 42 41 39 38 38 38 38 39 40 41 42 42
18 18 18 17 15 15 14 14 14 15 16 17 18 18 18 19 21 22 23 24 24 25 26 27 27 27 27 27 27 28 29 31 32 32 32 31 31 31 31 32 33 33 34 33 33 35 37 39 40 41 41 40 38 36 35 34 32 31 30 29 28 28 29 29 30 31 32 34 35 36 37 38 37 37 36 36 36 37 38 38 39 40 41 42 42
17 17 16 14 13 13 13 13 14 15 16 17 18 18 19 20 22 23 24 23 23 24 26 28 29 29 29 28 28 28 30 31 31 31 30 30 31 31 32 33 34 34 34 33 33 34 36 37 38 38 39 39 37 35 33 32 32 31 29 27 27 27 27 27 29 30 31 32 33 34 35 35 35 35 35 36 36 37 37 37 37 37 37 38 38
16 14 12 11 12 12 13 13 14 15 17 18 18 19 20 21 22 24 26 26 26 26 27 28 29 30 30 29 29 29 30 30 30 29 30 31 32 33 34 35 35 35 34 33 33 34 35 36 36 36 36 37 36 34 32 30 29 28 28 27 28 28 27 28 28 29 29 30 31 33 33 34 35 35 35 35 34 34 34 33 32 31 31 31 31
14 11 10 11 12 12 12 14 15 17 18 19 19 20 21 21 22 23 25 26 27 26 25 24 24 24 26 28 30 30 30 30 30 30 32 32 32 33 35 37 37 35 33 32 32 32 33 34 35 35 35 35 35 33 31 28 26 25 27 29 30 29 28 28 28 28 28 29 31 31 32 33 33 33 32 32 31 30 28 26 24 24 23 23 22
13 11 11 11 11 12 13 15 17 18 19 20 22 23 24 24 24 25 25 26 27 27 27 25 22 19 20 23 27 29 31 32 32 32 32 31 31 33 35 37 36 34 32 32 31 31 32 33 34 34 34 33 32 30 29 27 26 26 28 30 31 30 28 26 26 27 27 27 28 29 29 29 30 29 29 28 25 22 19 17 16 15 14 13 13
15 13 12 12 12 12 14 16 17 18 19 20 22 23 23 23 25 26 26 27 27 28 29 30 28 25 23 22 23 25 27 28 29 29 29 29 31 33 34 34 34 33 32 31 31 30 31 32 33 34 34 32 30 29 28 28 28 28 28 30 31 30 27 25 24 25 25 24 25 26 26 26 25 24 22 19 16 13 11 9 8 7 6 6 5
Wind_Direction
210 211 210 210 211 212 214 218 221 223 223 223 223 221 218 218 219 220 221 221 221 222 225 228 231 237 242 244 245 243 240 236 234 236 238 236 235 236 236 239 241 239 237 239 241 243 244 241 239 243 257 263 259 257 259 261 267 273 275 285 301 312 310 306 303 299 288 279 280 281 285 286 282 282 283 282 281 281 284 287 290 292 297 302 305
211 212 212 212 216 219 220 220 222 224 224 224 226 227 226 225 223 224 225 225 225 227 231 232 232 233 238 245 248 247 247 244 238 238 241 241 240 239 239 242 245 245 244 243 243 244 246 247 246 247 254 261 263 265 264 261 264 265 255 263 284 297 300 298 299 301 298 291 287 285 289 294 292 290 290 287 285 285 285 287 287 288 294 301 308
210 211 212 212 214 218 223 226 226 227 226 225 225 227 229 230 230 230 229 227 226 228 233 236 235 235 236 241 244 246 250 251 247 246 246 244 244 243 244 245 247 250 253 252 249 248 251 255 257 259 262 266 266 266 267 263 260 257 252 262 278 287 291 291 291 298 302 301 300 300 300 301 300 302 301 296 292 292 292 294 293 295 304 314 319
208 210 212 214 214 214 217 222 226 229 231 230 229 228 228 230 233 236 237 233 229 228 229 233 236 239 240 240 241 243 246 249 251 252 251 248 247 246 247 249 250 254 257 258 256 252 252 256 260 263 267 272 274 271 268 264 257 255 255 261 270 275 279 283 286 293 299 300 301 303 304 304 307 313 315 310 306 303 304 308 309 312 320 325 321
207 209 209 214 219 217 215 217 219 224 228 231 232 231 229 230 233 239 243 242 240 234 231 233 235 237 240 241 241 240 242 246 248 250 252 253 251 250 250 250 251 254 259 263 264 261 257 255 257 261 264 269 274 274 269 266 263 262 264 265 266 270 274 277 281 286 291 293 295 298 302 305 309 315 318 316 313 313 316 318 315 312 315 317 315
208 208 208 213 219 219 218 220 221 223 226 228 230 231 229 230 233 237 241 244 246 244 240 239 238 240 243 244 244 243 243 244 246 249 251 253 254 254 255 253 252 252 257 261 265 266 264 261 260 262 264 267 271 273 270 268 268 269 272 275 273 270 271 274 278 281 283 286 289 294 300 303 306 311 317 315 311 312 317 319 314 308 309 309 309
209 208 209 212 215 215 219 224 224 226 228 229 229 231 230 230 232 236 240 242 245 246 246 245 245 246 249 251 251 251 251 251 250 250 251 253 255 256 256 257 255 253 255 258 262 265 265 266 266 265 265 266 270 273 273 271 271 272 274 278 279 278 280 284 286 285 285 287 290 295 300 304 305 308 313 313 309 309 313 315 311 308 309 309 307
212 211 210 213 214 215 220 224 224 225 229 230 230 231 231 231 232 235 239 242 244 245 247 248 250 251 252 254 256 258 260 261 259 257 256 257 258 258 259 259 258 256 256 257 260 264 265 267 269 268 267 267 268 271 273 274 275 276 278 282 285 288 292 296 297 295 295 295 297 301 304 305 308 310 312 311 310 311 313 311 306 307 309 306 302
212 212 210 210 213 217 220 223 225 228 230 231 231 233 233 233 232 234 238 242 244 246 247 248 251 253 253 253 254 257 260 263 265 264 264 265 265 265 264 264 263 262 261 260 261 263 265 267 269 270 271 272 272 272 272 273 273 274 277 282 287 290 291 292 293 294 295 296 299 304 305 306 309 311 312 312 312 312 312 309 306 307 307 303 301
206 209 211 213 217 220 222 223 227 230 231 231 233 235 237 235 234 235 237 240 243 245 246 247 248 250 253 253 252 253 255 259 263 266 268 271 273 274 273 271 270 268 267 267 266 266 268 270 271 273 274 275 275 274 273 272 270 269 271 277 283 286 287 288 288 289 291 292 296 300 301 303 307 308 309 312 313 312 312 311 308 307 306 303 302
200 206 213 219 223 224 223 223 225 227 229 230 233 237 239 238 237 238 239 240 242 243 244 245 247 248 250 252 253 253 253 255 259 264 267 269 271 274 276 279 278 276 273 271 270 271 272 273 274 275 277 278 278 278 277 275 274 272 271 273 277 281 283 285 285 287 288 289 292 296 297 299 303 304 305 310 313 314 313 311 309 307 304 302 301
183 194 202 213 220 220 219 220 220 223 225 228 233 238 241 241 242 244 243 242 242 243 241 243 246 249 249 250 252 254 255 256 258 262 265 267 268 270 272 276 279 281 281 279 277 276 275 276 277 277 278 279 279 280 280 279 278 276 274 273 274 276 278 280 283 285 286 286 289 291 292 295 297 299 302 307 311 313 312 309 307 305 304 301 299
162 173 179 189 198 201 204 207 210 216 222 228 234 238 241 243 245 247 245 244 246 245 240 239 243 248 249 250 251 252 255 258 260 263 264 265 268 270 271 274 276 278 281 281 281 280 279 280 280 280 281 282 281 281 280 280 280 277 276 274 273 273 274 276 279 282 284 285 285 287 289 291 293 296 300 304 307 308 309 308 305 303 303 300 297
155 157 162 169 175 180 185 189 194 202 211 220 226 232 236 239 241 243 244 247 249 246 239 237 240 243 245 248 250 252 255 257 259 259 260 260 262 265 268 271 273 275 277 278 278 279 279 280 280 281 283 283 283 283 282 281 280 278 277 277 276 276 275 274 275 278 281 283 285 287 289 291 292 296 299 301 301 302 305 305 302 300 298 295 291
149 149 155 161 169 180 185 185 189 196 204 212 218 222 227 231 235 238 241 244 247 244 240 238 239 239 241 244 248 252 254 255 254 254 254 255 256 258 261 264 267 270 273 274 275 276 277 278 279 280 281 281 283 284 283 283 281 279 278 278 277 277 276 275 275 276 277 280 282 285 287 288 290 293 296 297 296 297 300 301 298 295 293 291 289
113 123 136 148 162 182 196 200 204 211 220 224 226 227 230 235 240 242 242 243 244 244 242 239 238 238 239 241 244 248 248 246 245 245 246 248 250 252 254 256 260 263 267 269 270 271 272 273 274 276 277 278 279 281 283 283 282 281 280 281 281 280 280 280 280 280 279 280 282 285 287 289 290 291 293 294 293 294 296 297 295 292 292 292 292
87 97 108 122 137 156 189 211 218 228 240 244 241 239 238 242 247 249 251 250 249 248 246 243 242 243 243 243 244 245 247 246 243 240 240 242 245 248 251 254 258 261 264 267 268 269 269 269 269 271 271 272 274 276 278 279 278 278 279 281 283 283 284 285 285 284 284 284 285 287 289 291 292 292 293 293 293 294 293 292 292 292 292 291 291
72 79 83 85 90 99 109 155 202 221 238 254 259 252 247 251 255 258 261 260 259 258 256 253 252 253 253 252 250 250 252 255 254 251 250 251 253 256 259 262 265 267 268 269 269 270 271 271 271 271 271 270 269 269 272 273 273 274 275 277 280 282 284 285 285 286 287 288 288 289 290 291 292 292 292 291 290 290 287 286 287 287 286 285 286
58 64 72 77 76 75 81 92 108 136 185 217 288 278 266 269 271 269 267 266 265 264 264 264 264 264 263 261 259 258 257 257 257 257 256 257 259 261 264 266 268 270 271 271 271 271 272 273 274 274 274 273 270 266 265 266 268 270 271 273 275 277 280 282 283 285 286 287 287 288 288 288 288 288 288 286 285 284 282 282 282 280 278 279 282
36 43 57 82 92 86 88 103 108 95 84 74 63 53 35 354 316 300 283 271 265 263 264 265 266 267 268 264 262 261 259 257 257 257 257 257 259 261 263 265 268 270 272 273 273 273 274 275 277 278 277 275 273 268 264 262 264 267 269 270 272 274 277 281 282 282 283 283 283 284 283 283 283 283 283 282 283 282 282 281 279 275 273 275 278
355 358 359 17 130 109 95 104 116 84 61 52 53 45 36 36 25 1 339 300 276 264 260 260 259 257 259 259 258 258 260 260 260 261 261 261 260 261 263 265 268 271 272 272 273 274 276 279 282 283 281 280 276 270 264 262 262 263 265 268 270 273 276 279 279 278 279 279 279 279 279 278 278 279 280 281 282 284 285 285 282 277 273 272 274
333 332 324 313 298 287 12 317 313 338 1 22 36 34 28 31 32 24 25 30 17 335 276 261 254 251 252 256 257 257 259 262 263 264 264 263 263 263 263 265 268 271 272 273 274 276 281 284 284 281 282 284 280 272 267 264 263 264 265 267 270 271 272 273 273 273 273 274 276 276 276 275 276 278 280 281 284 287 289 289 287 282 277 273 272
306 309 304 301 300 298 299 305 313 319 327 351 19 31 29 23 13 1 20 78 68 36 352 305 241 244 254 260 262 261 261 262 265 267 267 268 270 270 269 270 272 273 274 275 276 279 282 284 283 279 278 279 276 271 267 264 263 264 265 266 268 268 266 265 265 266 267 270 272 273 274 276 279 281 283 284 287 289 289 289 287 284 281 278 275
279 282 282 284 291 295 297 303 310 314 320 336 4 40 38 19 0 349 354 153 113 357 322 276 155 104 287 288 294 294 285 276 271 270 269 271 275 277 275 275 276 277 277 278 280 282 283 283 283 280 278 277 274 270 267 265 264 263 263 264 265 263 261 261 262 265 268 270 271 273 275 279 281 283 285 288 289 289 288 286 283 282 283 282 281
275 275 275 277 283 288 291 297 302 303 302 310 285 217 354 0 337 326 302 257 258 275 270 249 260 283 292 299 311 321 320 309 294 284 277 275 276 276 274 275 276 278 279 280 281 282 282 280 278 276 277 279 279 277 274 271 269 265 262 260 259 258 257 259 262 266 270 274 275 276 278 281 283 284 286 288 287 286 285 284 283 283 283 283 283
282 281 279 277 276 278 283 286 281 267 254 232 212 232 247 252 259 262 254 247 250 250 249 257 270 279 286 293 299 306 313 314 308 301 293 285 281 278 275 275 275 276 277 278 279 280 280 281 281 280 281 282 283 283 281 278 276 270 261 254 253 254 257 259 261 265 270 275 278 278 280 282 284 285 285 285 284 283 283 284 285 285 285 286 287
284 284 283 279 276 275 276 274 265 254 243 225 215 225 236 242 245 247 246 242 240 243 251 261 269 274 280 286 291 296 302 305 306 306 302 295 289 285 283 282 280 279 279 280 280 281 282 283 285 286 286 286 286 287 285 282 279 276 268 259 254 255 259 262 264 266 270 274 277 280 283 284 285 284 284 283 283 283 283 285 285 285 286 289 288
282 282 281 282 282 281 281 278 272 264 250 234 227 230 237 244 246 247 251 257 258 258 260 264 269 274 279 284 289 293 295 298 301 304 302 300 297 293 290 287 284 282 282 282 282 282 282 283 285 286 287 288 289 290 290 287 283 282 279 272 266 264 265 267 269 271 274 277 280 283 285 286 285 284 283 282 281 281 282 283 282 283 285 287 285
278 279 280 282 283 282 282 282 280 276 267 252 243 239 241 247 251 252 253 259 266 269 269 271 274 278 281 285 289 292 293 295 297 297 297 298 299 296 293 291 288 286 284 283 283 283 284 285 287 287 288 288 289 291 293 292 289 285 283 280 278 275 274 275 277 280 282 282 282 282 284 286 285 284 281 280 280 280 280 280 279 280 282 282 281
279 279 279 281 281 280 281 281 281 282 282 277 268 258 249 249 254 258 258 256 257 262 266 269 274 278 280 282 282 283 287 290 292 291 291 293 294 294 292 291 290 289 289 288 288 288 289 290 290 291 292 292 293 294 294 293 291 288 286 286 285 284 285 289 291 289 287 283 280 279 279 280 279 278 277 277 277 277 279 280 281 281 281 280 279
283 284 285 285 283 283 284 285 287 290 292 293 292 286 277 268 263 267 272 271 265 262 261 264 268 272 277 280 280 277 277 280 285 289 290 289 288 288 288 289 290 290 291 291 292 293 294 295 294 295 297 298 298 298 298 297 294 292 290 290 290 290 293 296 293 286 281 279 277 276 275 274 275 274 274 276 277 279 281 284 284 283 282 281 280
284 286 289 291 291 290 289 288 290 294 296 299 301 300 298 292 284 279 278 280 280 280 282 286 285 277 268 270 274 275 273 276 283 288 289 288 287 286 285 286 288 289 290 292 295 298 301 302 301 302 303 302 303 306 308 309 307 303 298 295 292 290 289 287 282 279 278 278 279 279 279 278 279 278 277 277 278 280 281 283 283 283 283 281 280
284 285 290 296 299 300 297 294 292 293 295 297 298 299 300 298 294 288 284 281 281 284 292 303 305 296 284 278 279 282 284 285 285 284 284 285 284 283 282 283 286 289 291 293 297 301 303 305 307 310 312 310 309 313 316 318 318 314 308 301 295 289 287 286 284 282 282 282 282 283 283 284 284 282 281 280 280 281 283 284 284 283 282 281 280
278 280 286 296 300 301 302 301 297 294 294 294 293 292 291 290 291 292 292 292 291 290 290 296 301 302 303 303 302 300 297 292 285 279 277 277 275 274 277 279 281 283 286 290 294 298 300 304 308 313 317 317 315 315 317 318 319 316 310 305 300 292 289 288 285 283 283 284 285 286 288 290 290 288 287 286 285 284 285 285 286 286 284 282 282
272 274 276 283 290 293 295 297 296 295 295 296 294 292 288 287 288 290 293 295 296 295 295 296 299 304 308 310 309 302 295 291 287 280 275 271 270 271 274 274 273 274 278 286 295 300 304 308 309 310 312 313 313 314 314 314 316 315 308 302 297 291 288 287 284 282 284 287 289 290 292 294 293 292 291 290 289 288 287 287 288 288 286 285 284
270 270 270 275 283 286 286 287 288 290 292 295 298 297 294 292 291 291 292 294 294 294 293 292 293 299 304 301 296 290 288 292 295 295 290 282 276 273 271 271 273 277 279 285 295 302 303 302 298 295 295 295 296 299 302 302 302 302 297 294 293 289 286 287 287 287 289 291 292 293 293 291 290 289 288 288 289 290 289 288 287 286 286 285 285
275 269 269 276 284 284 280 278 281 286 291 294 297 299 299 299 297 296 296 297 297 299 298 293 290 290 291 289 285 284 286 292 298 303 301 292 284 279 276 278 284 288 286 287 294 301 302 298 291 286 284 284 284 286 289 292 294 293 291 291 294 293 290 289 291 292 290 288 288 289 289 286 282 281 282 284 286 288 288 289 288 288 288 287 285
281 268 263 268 276 277 275 274 275 279 284 289 292 295 297 299 300 299 298 299 299 301 303 301 296 293 292 292 290 289 290 292 295 295 289 284 284 286 286 287 291 292 291 290 292 297 300 300 296 291 287 285 284 283 282 283 284 286 286 287 290 294 293 292 295 296 291 283 279 279 278 278 279 281 283 284 285 287 288 288 288 287 288 287 284
280 268 262 264 267 270 273 275 275 276 279 283 286 288 290 293 297 298 297 296 295 294 296 298 298 297 296 297 296 295 293 290 288 284 280 280 282 285 286 287 290 292 293 292 293 294 297 299 299 295 290 287 286 285 282 279 278 278 279 279 283 287 288 289 292 295 291 283 280 277 276 280 287 290 288 286 287 287 287 287 286 285 286 287 287
285 276 273 272 271 272 274 275 276 277 280 282 282 282 282 285 289 292 293 293 292 290 289 289 290 291 293 294 294 292 289 287 286 285 284 283 283 283 285 287 291 294 296 297 295 294 295 297 299 298 293 289 287 285 283 281 278 277 277 276 278 280 280 280 282 286 284 282 282 282 282 285 289 292 291 290 290 289 288 288 288 288 288 288 289
295 293 292 289 286 284 283 283 282 281 280 277 276 276 277 280 282 285 286 287 288 289 289 288 286 285 285 286 285 285 285 285 286 286 285 286 287 287 289 291 294 297 300 300 297 295 295 297 299 298 294 290 287 285 284 283 281 279 278 278 277 277 276 274 274 277 278 279 280 282 284 286 288 289 290 289 289 288 287 287 287 289 290 290 289
305 304 301 298 297 295 294 293 290 286 281 277 275 274 275 278 281 283 283 284 284 285 286 287 287 286 285 283 282 281 281 282 283 284 286 288 291 292 293 294 295 297 299 300 298 296 296 298 299 298 294 291 289 287 284 283 281 279 279 278 277 277 277 275 273 273 274 276 278 280 283 286 287 288 288 287 285 285 284 283 284 285 286 287 288
301 301 299 298 296 295 294 292 291 289 288 287 286 283 281 281 281 282 283 283 283 283 282 283 284 285 285 285 284 282 282 282 283 284 286 288 290 292 293 293 293 294 296 296 296 296 297 299 300 299 295 292 289 287 285 283 281 279 278 277 275 275 276 276 276 275 274 274 275 275 277 280 282 284 284 283 283 283 282 282 281 281 281 282 283
297 296 297 297 293 290 290 290 292 294 295 296 295 292 288 285 283 282 283 283 283 283 281 280 280 279 280 281 281 282 282 283 284 284 285 286 288 291 291 291 292 292 292 292 293 296 298 300 301 300 297 292 287 284 283 282 281 280 278 276 274 273 273 274 276 277 277 276 274 273 273 275 277 278 278 279 280 281 281 281 281 281 280 280 279
301 302 304 303 299 296 296 296 297 298 299 301 301 301 300 297 293 291 289 287 286 285 284 282 281 279 276 275 276 277 279 281 282 283 284 285 286 287 289 289 289 290 290 291 294 296 297 298 300 300 297 292 287 283 281 280 280 279 277 275 274 274 274 275 275 276 276 276 276 275 274 274 274 275 276 277 278 278 279 280 281 281 282 281 281
309 312 312 310 308 307 307 306 306 306 307 309 309 309 307 303 299 296 293 292 290 289 286 284 283 280 277 275 276 276 277 279 280 281 282 282 284 286 288 289 291 292 294 297 297 296 296 297 298 298 296 293 289 286 284 282 281 278 276 275 274 273 275 276 276 275 275 276 276 276 275 274 274 275 276 277 278 278 278 279 279 280 280 281 281
317 316 315 316 315 312 310 307 306 306 306 305 304 302 299 296 295 294 293 293 293 290 287 285 283 280 277 277 277 277 279 281 281 281 281 282 285 288 290 292 294 295 297 299 300 299 297 297 297 296 294 291 290 288 287 286 284 281 278 276 275 274 274 275 275 274 274 275 275 275 274 274 275 275 276 278 279 279 280 280 280 280 280 281 281
321 319 320 319 313 307 306 306 305 303 301 301 301 301 299 298 297 294 291 289 290 289 288 288 287 283 279 277 278 279 280 279 279 279 281 284 286 288 290 293 295 296 296 298 300 300 299 297 296 294 291 288 287 288 289 290 289 285 280 276 274 272 271 271 271 272 273 273 272 272 273 274 275 277 278 280 281 281 281 281 281 281 281 281 282
328 326 322 316 310 306 306 304 299 297 298 299 297 295 294 295 297 297 293 289 286 284 284 288 292 290 282 277 275 277 278 277 278 280 282 284 285 286 288 290 292 293 294 297 299 299 299 297 294 291 287 284 284 287 290 291 291 286 281 277 275 272 269 269 269 269 270 270 271 272 273 275 276 278 279 280 280 280 280 280 280 281 282 283 284
337 331 323 320 316 310 303 298 293 291 294 296 293 289 288 288 289 291 291 288 284 281 280 282 288 291 285 278 274 275 276 278 280 282 282 283 285 286 287 288 289 290 292 294 296 297 296 294 291 287 284 282 282 284 286 288 289 287 284 281 277 273 269 267 268 268 269 270 272 273 274 274 275 275 276 276 277 277 278 278 279 281 283 284 285
347 340 333 329 323 315 309 306 301 294 291 292 292 292 292 291 290 289 287 286 283 281 280 281 283 285 286 283 280 278 278 279 280 281 283 285 287 287 287 287 287 288 289 291 293 293 293 291 288 286 284 282 282 282 282 284 286 286 286 284 280 273 268 265 266 265 265 267 269 270 269 270 270 269 269 269 269 268 267 266 267 270 275 280 283